This is the latest recevied weather packets stored in our database for station/object VR2OT-10. If no packets are shown the sender has not sent any weather packets the latest 10 day(s).
| Time | Temp. | Humidity | Pressure | Rain* | Wind** | Luminosity | Snow |
|---|---|---|---|---|---|---|---|
| 1787796634 | 26.11° C | 95% | 1004.3 hPa | - | 0 m/s | - | - |
| 1787795733 | 26.11° C | 93% | 1004.5 hPa | - | 0.45 m/s, 225° | - | - |
| 1787794831 | 26.11° C | 94% | 1004.7 hPa | - | 0.89 m/s, 45° | - | - |
| 1787793933 | 26.11° C | 94% | 1004.6 hPa | - | 0.45 m/s, 135° | - | - |
| 1787793034 | 26.67° C | 95% | 1004.5 hPa | - | 0 m/s | - | - |
| 1787792132 | 26.67° C | 94% | 1004.3 hPa | - | 1.34 m/s, 0° | - | - |
| 1787791234 | 26.67° C | 94% | 1004.2 hPa | - | 0.89 m/s, 0° | - | - |
| 1787790333 | 26.11° C | 96% | 1004.2 hPa | - | 1.79 m/s, 135° | - | - |
| 1787789432 | 26.11° C | 96% | 1004.2 hPa | - | 0.89 m/s, 90° | - | - |
| 1787787634 | 25.56° C | 96% | 1004 hPa | - | 2.24 m/s, 90° | - | - |
| 1787786732 | 25.56° C | 96% | 1004.1 hPa | - | 4.47 m/s, 90° | - | - |
| 1787785834 | 25.56° C | 96% | 1004.1 hPa | - | 3.13 m/s, 90° | - | - |
| 1787784031 | 25.56° C | 95% | 1003.6 hPa | - | 2.24 m/s, 135° | - | - |
| 1787783133 | 25.56° C | 95% | 1003.5 hPa | - | 3.58 m/s, 135° | - | - |
| 1787782233 | 25.56° C | 95% | 1003.5 hPa | - | 2.68 m/s, 90° | - | - |
| 1787780434 | 25.56° C | 96% | 1003.1 hPa | - | 1.34 m/s, 90° | - | - |
| 1787779533 | 25.56° C | 95% | 1003.3 hPa | - | 1.34 m/s, 90° | - | - |
| 1787778631 | 25.56° C | 96% | 1003.2 hPa | - | 2.24 m/s, 135° | - | - |
| 1787777733 | 25.56° C | 95% | 1003.2 hPa | - | 1.79 m/s, 135° | - | - |
| 1787776834 | 25.56° C | 96% | 1003 hPa | - | 1.34 m/s, 180° | - | - |
| 1787775932 | 26.11° C | 96% | 1003 hPa | - | 1.34 m/s, 180° | - | - |
| 1787775034 | 26.11° C | 95% | 1002.8 hPa | - | 0.45 m/s, 180° | - | - |
| 1787774133 | 26.11° C | 96% | 1002.7 hPa | - | 1.34 m/s, 315° | - | - |
| 1787773232 | 26.11° C | 96% | 1002.8 hPa | - | 0.89 m/s, 315° | - | - |
| 1787772333 | 26.11° C | 95% | 1003.1 hPa | - | 1.79 m/s, 180° | - | - |
* Rain since midnight (hover to see other rain measurements)
** Current wind speed in m/s (hover to see current wind gust speed)